Skip Page Navigation
NASA JPL Caltech
NASA Logo - Jet Propulsion Laboratory + View the NASA Portal
+ Center for Near-Earth Object Studies
JPL Home Earth Solar System Stars & Galaxies Technology
JPL Solar System Dynamics
BODIES ORBITS EPHEMERIDES TOOLS PHYSICAL DATA DISCOVERY FAQ SITE MAP
IMPORTANT: The SSD Announcement email list is now available. Major changes are coming in the near future, including possible hostname and/or URL changes. To be notified of such changes, subscribe to this email list.

Please visit this page for more details.


JPL Small-Body Database Browser
Search: [ help ]  
(2019 YB4)
Classification: Aten [NEO]          SPK-ID: 3959223
Ephemeris | Orbit Diagram | Orbital Elements | Mission Design | Physical Parameters | Close-Approach Data ]

[ show orbit diagram ]
Orbital Elements at Epoch 2459000.5 (2020-May-31.0) TDB
Reference: JPL 3 (heliocentric ecliptic J2000)
 Element Value Uncertainty (1-sigma)   Units 
e .1922951475500625 0.00022099  
a .9961562394686857 5.7895e-05 au
q .8046002284171394 0.00017389 au
i .5362391852225672 0.00027699 deg
node 324.9071884080477 0.038449 deg
peri 235.6584223770793 0.038334 deg
M 71.41892157694464 0.012094 deg
tp 2458928.455571027994
(2020-Mar-19.95557103)
0.018461 TDB
period 363.1529832325946
0.99
0.031659
8.668e-05
d
yr
n .9913177548356384 8.6421e-05 deg/d
Q 1.187712250520232 6.9028e-05 au
  Orbit Determination Parameters
   # obs. used (total)      37  
   data-arc span      4 days  
   first obs. used      2019-12-29  
   last obs. used      2020-01-02  
   planetary ephem.      DE431  
   SB-pert. ephem.      SB431-N16  
   condition code      6  
   norm. resid. RMS      .40601  
   source      ORB  
   producer      Otto Matic  
   solution date      2020-Jan-02 06:17:03  

Additional Information
 Earth MOID = .00293673 au 
 Jupiter MOID = 3.76879 au 
 T_jup = 6.082 
[ show covariance matrix ]

Ephemeris | Orbit Diagram | Orbital Elements | Mission Design | Physical Parameters | Close-Approach Data ]

Physical Parameter Table
Parameter Symbol Value Units Sigma Reference Notes
absolute magnitude H 26.8   .42777 E2020A27 autocmod 2.8

[ hide close-approach data ]
Close-Approach Data   ...sorted by Date/Time (TDB)
Date/Time (TDB) Time Uncertainty
(days_HH:MM)
Body Nominal Distance (au) Minimum Distance (au) Maximum Distance (au) V-relative (km/s) V-infinity (km/s) JD (TDB) Time Uncertainty (minutes) Semi-major axis (km) Semi-minor axis (km) range-LOV angle (deg) N-sigma BP Orbit Ref. Reference Modified
1916-Aug-12 10:55 3_12:54 Earth 0.4776311005523 0.39747430717558 0.557796806519055 20.0925661716545 20.0922885282556 2421087.954752562 5094.36214684836 3998641.28019919 1149.18645525516 -1.49798480525599 1403.97141641148 T 3 CATAB v2.0f-lin.ifort 2020-Jan-02 06:17:04 2020-Jan-02 06:17
1917-Aug-10 05:12 3_00:51 Earth 0.422048246327496 0.352158518985129 0.491942009811294 18.4058803954389 18.4055373926053 2421450.716587444 4371.15508316961 3485826.40533898 995.285918840091 -1.1334593516044 1064.22951481269 T 3 CATAB v2.0f-lin.ifort 2020-Jan-02 06:17:04 2020-Jan-02 06:17
1918-Aug-08 00:26 2_14:07 Earth 0.366736906995305 0.30757430880015 0.425901473162412 16.7558451143423 16.7554115066072 2421813.518012229 3727.21908885955 2950552.78394746 879.889298251977 -0.941566237834769 854.016414451589 T 3 CATAB v2.0f-lin.ifort 2020-Jan-02 06:17:04 2020-Jan-02 06:17
1919-Aug-05 22:22 2_02:22 Earth 0.311322667052203 0.263359687105223 0.359285736667526 15.0944941252838 15.0939271146436 2422176.432029016 3021.81087848948 2391736.63690049 732.25634128587 -0.590036289411155 531.819592703152 T 3 CATAB v2.0f-lin.ifort 2020-Jan-02 06:17:04 2020-Jan-02 06:17
1920-Aug-02 19:31 1_13:23 Earth 0.255714291849712 0.219485808884269 0.291942073608376 13.4170392952662 13.4162626669284 2422539.312919985 2242.63620036427 1806427.06879429 561.652929086321 -0.0413121120852859 30.2000059692011 T 3 CATAB v2.0f-lin.ifort 2020-Jan-02 06:17:04 2020-Jan-02 06:17
1921-Jul-31 16:26 1_00:45 Earth 0.201203048233663 0.177132665265679 0.22527309390355 11.7977674200829 11.7966448883368 2422902.184726453 1485.08492781496 1200213.95764693 420.205888280958 0.528009204478746 498.550917845928 T 3 CATAB v2.0f-lin.ifort 2020-Jan-02 06:17:04 2020-Jan-02 06:17
1922-Jul-29 18:39 12:11 Earth 0.148533380204379 0.137127050719367 0.159939924934257 10.2503957986372 10.2486456105027 2423265.276868240 730.92844188554 568862.784914956 290.287890445547 1.35423775419751 1324.44120082742 T 3 CATAB v2.0f-lin.ifort 2020-Jan-02 06:17:04 2020-Jan-02 06:17
1923-Jul-28 01:26 00:29 Earth 0.0985409917578573 0.0968898870592442 0.100192089815487 8.75433251965527 8.75124329833993 2423628.560043653 29.0714589924015 82323.8609628221 148.331167036327 0.171328652274959 251.883246860413 T 3 CATAB v2.0f-lin.ifort 2020-Jan-02 06:17:04 2020-Jan-02 06:17
1924-Jun-01 09:51 2_16:19 Venus 0.140953677185403 0.13811118569967 0.1558541837182 1.80742042592916 1.79887642950525 2423937.910241354 3859.42811314576 2205905.41523049 1713.78865086662 -78.6499073443914 5873.47759955695 T 3 CATAB v2.0f-lin.ifort 2020-Jan-02 06:17:04 2020-Jan-02 06:17
1924-Jul-25 14:33 11:19 Earth 0.0529006006060977 0.0383089205402717 0.0675200910190338 7.3922040512018 7.38538728973802 2423992.106595881 678.63034370077 730830.868560087 48.2036004591044 4.82356426088318 8007.14614048098 T 3 CATAB v2.0f-lin.ifort 2020-Jan-02 06:17:04 2020-Jan-02 06:17
1925-Jul-24 13:08 16:53 Earth 0.0162474157523483 0.00483499201360744 0.040318548079682 6.33394817055883 6.30800375306617 2424356.047155456 1013.04519193441 1222841.67679948 111.532227887531 17.5246911814059 12605.7446070592 T 3 CATAB v2.0f-lin.ifort 2020-Jan-02 06:17:04 2020-Jan-02 06:17
1926-Jul-24 15:13 11:35 Earth 0.0143227128934832 0.00497036683430182 0.026208260218612 6.26916267730345 6.2394180157629 2424721.134335162 694.722455547779 612296.55550693 116.033949245622 19.8784352471623 12076.6228698562 T 3 CATAB v2.0f-lin.ifort 2020-Jan-02 06:17:04 2020-Jan-02 06:17
1927-Jul-26 05:20 21:17 Earth 0.0513117915076706 0.0305874217825627 0.0721072587532186 7.34788691734399 7.34081655435442 2425087.722056581 1277.19675073999 1039590.0257326 48.3028058610892 5.08276000621854 8353.55138617785 T 3 CATAB v2.0f-lin.ifort 2020-Jan-02 06:17:04 2020-Jan-02 06:17
1928-Jul-27 10:47 1_02:18 Earth 0.0995177384642778 0.0752108682130776 0.123830226276191 8.78294743936076 8.77989851281018 2425454.949207160 1578.47601368437 1212798.76713097 148.904399313615 2.11870358501079 2519.09710433965 T 3 CATAB v2.0f-lin.ifort 2020-Jan-02 06:17:04 2020-Jan-02 06:17
1929-Jul-29 21:08 1_04:36 Earth 0.152660215308313 0.126408694472405 0.17891153470124 10.3339971692993 10.332308075988 2425822.380900024 1715.81326188562 1309022.95257644 283.335689241503 0.907992832633129 949.893994319013 T 3 CATAB v2.0f-lin.ifort 2020-Jan-02 06:17:04 2020-Jan-02 06:17
1930-Aug-01 12:19 1_06:43 Earth 0.208747687043551 0.181319732812892 0.236174955185144 12.0174067491979 12.0163445667584 2426190.013291898 1842.59781148038 1367573.86125862 463.433435312587 0.00891486490522413 18.3411564384982 T 3 CATAB v2.0f-lin.ifort 2020-Jan-02 06:17:04 2020-Jan-02 06:17
1931-Aug-04 05:52 1_07:19 Earth 0.266151914420419 0.237954782255863 0.294348857123853 13.7007948383569 13.7000641224177 2426557.744222658 1879.33973407533 1406027.66008345 599.503227889201 -0.457953504825012 420.965382068646 T 3 CATAB v2.0f-lin.ifort 2020-Jan-02 06:17:04 2020-Jan-02 06:17
1932-Aug-05 23:12 1_08:36 Earth 0.324258624750784 0.295497695507806 0.353020247400152 15.4603638366269 15.4598323301326 2426925.466555052 1956.42773438758 1434403.45449254 791.244733252815 -1.08431266654676 959.767664488103 T 3 CATAB v2.0f-lin.ifort 2020-Jan-02 06:17:04 2020-Jan-02 06:17
1933-Aug-08 21:15 1_08:28 Earth 0.383917342121118 0.355002262440066 0.412833497562562 17.2263381636689 17.2259352734382 2427293.385229317 1947.93733783162 1442261.02219749 919.134039603538 -1.34974596022571 1240.79190478885 T 3 CATAB v2.0f-lin.ifort 2020-Jan-02 06:17:04 2020-Jan-02 06:17
1934-Aug-11 17:26 1_09:07 Earth 0.444040002231061 0.415085643487075 0.472996304692073 19.0474997117876 19.0471846789127 2427661.226512203 1986.52103270775 1444628.28148136 1115.27069233312 -1.87601545806643 1675.23954947288 T 3 CATAB v2.0f-lin.ifort 2020-Jan-02 06:17:04 2020-Jan-02 06:17
1935-Jun-29 04:28 6_04:09 Venus 0.141927441481503 0.13882089851069 0.191101698995043 1.8365783157179 1.82822841154296 2427982.686056692 8889.38295162501 5090538.56682846 952.050735729897 -78.1552325876872 6829.97923414895 T 3 CATAB v2.0f-lin.ifort 2020-Jan-02 06:17:04 2020-Jan-02 06:17
1960-Aug-27 03:19 3_03:39 Venus 0.102557878840915 0.0992692106471028 0.107332036194424 1.43069412757893 1.41581707100258 2437173.638332701 4538.51263420412 651764.32352801 3407.37385802301 71.47658752152 1923.53273033735 T 3 CATAB v2.0f-lin.ifort 2020-Jan-02 06:17:04 2020-Jan-02 06:17
1974-Nov-10 21:00 2_20:35 Venus 0.137375036494267 0.134208238664259 0.153993072221703 1.79717609711167 1.78835876557318 2442362.374864586 4114.67943450196 2310627.26190108 990.868050992094 -77.8263524114575 5716.15256271956 T 3 CATAB v2.0f-lin.ifort 2020-Jan-02 06:17:04 2020-Jan-02 06:17
1985-Nov-06 19:15 2_07:04 Venus 0.125229037186574 0.119685260442813 0.13121685409512 0.835512266126527 0.814493440195665 2446376.302409437 3303.81078754836 481306.898409397 2767.48057301284 40.8956193613445 554.063432571433 T 3 CATAB v2.0f-lin.ifort 2020-Jan-02 06:17:04 2020-Jan-02 06:17
2000-Jan-15 19:34 14:24 Venus 0.0998604222716784 0.0990459836170451 0.100742876737392 1.53150614055449 1.51724073328326 2451559.315368444 863.559792537443 137817.715017869 4115.57052465025 -71.9515889189718 3895.91351858236 T 3 CATAB v2.0f-lin.ifort 2020-Jan-02 06:17:04 2020-Jan-02 06:17
2010-Dec-15 09:18 01:28 Earth 0.477386997297655 0.476057671910879 0.478716342806656 20.4468798911909 20.4466069194912 2455545.887842047 87.5989236770844 66468.5156683674 209.831662477657 4.22401879328148 20771.2022754575 T 3 CATAB v2.0f-lin.ifort 2020-Jan-02 06:17:04 2020-Jan-02 06:17
